OPS 4682 DEB, 38384

Orbit data source: Space-Track

OPS 4682 DEB, 38384 is space debris in LEO originally from a launch on Sat, 03 Apr 1965 UTC launched from the Air Force Western Test Range (AFWTR). Debris objects in space refer to the collection of defunct objects orbiting the Earth. Examples of debris include non-operational satellites, rocket bodies, and fragments generated from explosions, collisions, or faulty payload assembly.

Loading next visibility...
Identifier
38384, 1965-027CM
Orbit
LEO
Country
Flag of USUS
Related business
Manufacturer
Unknown
Mission
Spacecraft
Bus & Motor
Unknown
Mass
Unknown
Launch date (UTC)
1965-04-03 (61 years ago)
Launch vehicle
Unknown
Launch site
Air Force Western Test Range (AFWTR)
Object type
Payload
Rocket body
Debris
Shape & HBR
Unknown shape, 0.1 m
Radar Cross Section
Medium (>0.1 m² and <1 m²)

Expand to show TLE details & history
Last TLE update: 2 days ago

TLE from 2 days ago
0 OPS 4682 DEB
1 38384U 65027CM  26173.51732728 -.00000449  00000-0 -15481-2 0  9990
2 38384  90.2611  17.2505 0016236 345.7302  14.3358 12.98541514665022
Epoch: 2026-06-22T12:24Z
TLE epoch observation values (Epoch: 2026-06-22T12:24:57.076Z)
Latitude
-0.00011°
Longitude
-79.68942°
Altitude
1,258.659 km
Speed
7.232 km/s
True Right ascension
01h 09m 00s
True Declination
0° 00' 00"
Sunlit
Object was in daylight at epoch
Visualization orbit readout
Latitude
Unknown
Longitude
Unknown
Altitude
Unknown
Speed
Unknown
Apparent Right ascension
Unknown
Apparent Declination
Unknown
Sunlit
N/A
Visualization observer readout
Local Sidereal Time
04:43:50
Azimuth
Unknown
Elevation
Unknown
Doppler factor
Unknown
Orbital elements
Apogee altitude
1,277.345 km
Perigee altitude
1,252.526 km
Semi-major axis
7,643.073 km
Eccentricity
0.00162
Inclination
90.2611°
RAAN
17.2505°
Arg. of periapsis
345.7302°
True anomaly
14.38196°
Mean anomaly
14.3358°
Eccentric anomaly
14.35887°
Mean motion
3.24819 °/min
Orbital period
110.83 mins
BSTAR
-0.0015481
Loading maneuver chart data...
Computing Atmospheric mass density...
Loading historical data...
Loading historical data...
Loading historical data...
Loading historical data...
Loading historical data...
Loading historical data...
Loading historical data...

Documentation

Showing up to 5 results
|